Zurück zum Katalog

SL-8 DEB

AktivPO
NORAD 18552·DEBRIS·🇷🇺 Russia

Gestartet Nov 13, 1986 von Plesetsk Cosmodrome

Loading…

Nächste Überflüge (nächste 24 Stunden)

TLE

AktuellSource: Space-Track

Epoche: Sep 14, 2026, 10:31 UTC

1 18552U 86086C   26257.43840137  .00001884  00000-0  77571-3 0  9992
2 18552  82.9138  57.5980 0026825  38.6565 350.8812 14.26271882 35741

Verfolge SL-8 DEB in Echtzeit mit AllMySat

Download on the App Store